Location: Newark
(44.6303°N, 123.0961°W)
Time: 21:07:30
(UTC+00:00)

Envisat - Pass Details

Date: 30 January 2020
Orbit: 764 x 766 km, 98.1° (Epoch: 23 February)

Event Time Altitude Azimuth Distance (km) Brightness Sun altitude
Rises 02:39:44 0° 188° (S) 3,219 6.5 -14.9°
Reaches altitude 10° 02:42:12 10° 197° (SSW) 2,297 5.8 -15.3°
Maximum altitude 02:46:51 36° 263° (W) 1,200 4.7 -16.1°
Drops below altitude 10° 02:51:32 10° 330° (NNW) 2,312 5.7 -17.0°
Sets 02:54:02 0° 339° (NNW) 3,243 6.4 -17.4°
